Location: Caltech
(34.1382°N, 118.1253°W)
Time: 15:11:43
(UTC-07:00)

Cosmos 2333 Rocket - Visible Passes

Search period start: 16 April 2014 00:00
Search period end: 26 April 2014 00:00
Orbit: 841 x 861 km, 70.9° (Epoch: 15 April)

Date Brightness Start Highest point End Pass type
(mag) Time Alt. Az. Time Alt. Az. Time Alt. Az.
16 Apr 3.1 21:26:28 10° NW 21:31:49 45° WSW 21:34:31 26° SSW visible
17 Apr 3.1 21:14:10 10° NW 21:19:30 45° WSW 21:23:17 19° S visible
18 Apr 3.1 21:01:51 10° NW 21:07:11 45° WSW 21:12:07 12° S visible
19 Apr 3.2 20:49:32 10° NW 20:54:52 45° WSW 21:00:13 10° S visible
20 Apr 3.2 20:37:13 10° NW 20:42:34 45° WSW 20:47:54 10° S visible
21 Apr 3.3 20:24:54 10° NW 20:30:15 45° WSW 20:35:35 10° S visible
22 Apr 3.3 20:12:35 10° NW 20:17:56 45° WSW 20:23:17 10° S visible
23 Apr 3.4 20:00:16 10° NW 20:05:37 45° WSW 20:10:58 10° S visible
24 Apr 3.4 19:47:57 10° NW 19:53:18 45° WSW 19:58:39 10° S visible
